Accueil
METAR-TAF:

METAR-TAF

Aéroports :

Brevoort Island, Nunavut, Canada

latitude: 63-20N, longitude: 064-09W, altitude: 367 m

Observation

Le bulletin a été fait il y a 1 heure et 9 minutes, à 08:00 UTC
Vent 5 kt de ouest
Température -24°C
Humidité 69%
Pression 998 hPa
Nuages fragmentés à une hauteur de 17000 ft
Ciel couvert à une hauteur de 19000 ft

METAR: CWOB 230800Z AUTO 28005KT ////SM //// BKN170 OVC190 M24/M28 A2946

Heure: 04:09 (09:09 UTC)


TAF: absent

Observations et prévisions météorologiques de plus de 4000 aéroports (messages METAR et TAF).

Les stations disponibles sont représentées par des disques jaunes et rouges sur la carte.

Passer la souris dessus pour voir le nom de la station.

Cliquer dessus pour voir les observations et prévisions météorologiques.

Pour changer de carte: cliquez sur les boutons verts avec une croix noire pour zoomer, sur le bouton vert avec un tiret pour effectuer un zoom arrière, ou sur les flèches vertes pour les cartes adjacentes.


METAR-TAF: